Hourly Weather Megri

Today, 26 October, Monday

Time Temperature Precipitation Wind Pressure Humidity
00:00 +12°C° 0 mm 0 mps 623 mmHg 36%
01:00 +11°C° 0 mm 0 mps 623 mmHg 36%
02:00 +11°C° 0 mm 0 mps 623 mmHg 37%
03:00 +12°C° 0 mm 1 mps 623 mmHg 37%
04:00 +12°C° 0 mm 1 mps 623 mmHg 39%
05:00 +11°C° 0 mm 1 mps 623 mmHg 40%
06:00 +11°C° 0 mm 1 mps 623 mmHg 42%
07:00 +13°C° 0 mm 1 mps 624 mmHg 39%
08:00 +14°C° 0 mm 1 mps 625 mmHg 36%
09:00 +16°C° 0 mm 1 mps 626 mmHg 33%
10:00 +18°C° 0 mm 1 mps 626 mmHg 32%
11:00 +18°C° 0 mm 1 mps 626 mmHg 31%
12:00 +19°C° 0 mm 1 mps 626 mmHg 30%
13:00 +19°C° 0 mm 1 mps 626 mmHg 30%
14:00 +19°C° 0 mm 1 mps 626 mmHg 29%
15:00 +20°C° 0 mm 1 mps 626 mmHg 28%
16:00 +18°C° 0 mm 1 mps 625 mmHg 35%
17:00 +15°C° 0 mm 1 mps 625 mmHg 42%
18:00 +14°C° 0 mm 1 mps 624 mmHg 49%
19:00 +13°C° 0 mm 1 mps 624 mmHg 53%
20:00 +13°C° 0 mm 1 mps 624 mmHg 56%
21:00 +12°C° 0 mm 1 mps 624 mmHg 60%
22:00 +12°C° 0 mm 1 mps 624 mmHg 59%
23:00 +11°C° 0 mm 1 mps 624 mmHg 59%

Tomorrow, 27 October, Tuesday

Time Temperature Precipitation Wind Pressure Humidity
00:00 +10°C° 0 mm 0 mps 624 mmHg 58%
01:00 +9°C° 0 mm 0 mps 623 mmHg 56%
02:00 +9°C° 0 mm 0 mps 623 mmHg 53%
03:00 +9°C° 0 mm 0 mps 623 mmHg 51%
04:00 +8°C° 0 mm 0 mps 623 mmHg 51%
05:00 +8°C° 0 mm 0 mps 623 mmHg 51%
06:00 +8°C° 0 mm 0 mps 623 mmHg 51%
07:00 +10°C° 0 mm 0 mps 624 mmHg 45%
08:00 +12°C° 0 mm 0 mps 625 mmHg 39%
09:00 +15°C° 0 mm 0 mps 626 mmHg 32%
10:00 +18°C° 0 mm 1 mps 626 mmHg 30%
11:00 +19°C° 0 mm 1 mps 627 mmHg 28%
12:00 +20°C° 0 mm 1 mps 627 mmHg 25%
13:00 +20°C° 0 mm 1 mps 627 mmHg 25%
14:00 +20°C° 0 mm 1 mps 627 mmHg 24%
15:00 +20°C° 0 mm 1 mps 626 mmHg 23%
16:00 +18°C° 0 mm 1 mps 626 mmHg 30%
17:00 +16°C° 0 mm 1 mps 625 mmHg 37%
18:00 +14°C° 0 mm 1 mps 625 mmHg 44%
19:00 +13°C° 0 mm 1 mps 625 mmHg 48%
20:00 +12°C° 0 mm 1 mps 625 mmHg 51%
21:00 +12°C° 0 mm 1 mps 625 mmHg 55%
22:00 +11°C° 0 mm 1 mps 625 mmHg 57%
23:00 +11°C° 0 mm 1 mps 625 mmHg 58%

Day after tomorrow, 28 October, Wednesday

Time Temperature Precipitation Wind Pressure Humidity
00:00 +11°C° 0 mm 1 mps 625 mmHg 60%
01:00 +10°C° 0 mm 1 mps 625 mmHg 62%
02:00 +10°C° 0 mm 1 mps 624 mmHg 63%
03:00 +9°C° 0 mm 1 mps 624 mmHg 65%
04:00 +8°C° 0 mm 2 mps 624 mmHg 66%
05:00 +8°C° 0 mm 2 mps 624 mmHg 68%
06:00 +8°C° 0 mm 2 mps 625 mmHg 69%
07:00 +9°C° 0 mm 2 mps 625 mmHg 64%
08:00 +12°C° 0 mm 2 mps 626 mmHg 59%
09:00 +13°C° 0 mm 2 mps 627 mmHg 54%
10:00 +14°C° 0 mm 2 mps 627 mmHg 49%
11:00 +15°C° 0 mm 2 mps 628 mmHg 44%
12:00 +18°C° 0 mm 1 mps 628 mmHg 39%
13:00 +18°C° 0 mm 1 mps 628 mmHg 39%
14:00 +17°C° 0 mm 2 mps 628 mmHg 39%
15:00 +17°C° 0 mm 2 mps 628 mmHg 40%
16:00 +15°C° 0 mm 2 mps 627 mmHg 48%
17:00 +14°C° 0 mm 2 mps 627 mmHg 57%
18:00 +12°C° 0 mm 2 mps 626 mmHg 66%
19:00 +12°C° 0 mm 2 mps 626 mmHg 68%
20:00 +10°C° 0 mm 2 mps 626 mmHg 69%
21:00 +10°C° 0 mm 2 mps 626 mmHg 71%
22:00 +10°C° 0 mm 2 mps 626 mmHg 70%
23:00 +10°C° 0 mm 2 mps 626 mmHg 70%

29 October, Thursday

Time Temperature Precipitation Wind Pressure Humidity
00:00 +9°C° 0 mm 2 mps 626 mmHg 69%
01:00 +9°C° 0 mm 2 mps 626 mmHg 69%
02:00 +10°C° 0 mm 1 mps 626 mmHg 68%
03:00 +10°C° 0 mm 1 mps 626 mmHg 68%
04:00 +9°C° 0 mm 1 mps 626 mmHg 68%
05:00 +9°C° 0 mm 1 mps 626 mmHg 68%
06:00 +9°C° 0 mm 1 mps 626 mmHg 68%
07:00 +10°C° 0 mm 1 mps 627 mmHg 61%
08:00 +12°C° 0 mm 1 mps 627 mmHg 54%
09:00 +14°C° 0 mm 1 mps 628 mmHg 46%
10:00 +15°C° 0 mm 1 mps 628 mmHg 42%
11:00 +16°C° 0 mm 1 mps 629 mmHg 37%
12:00 +18°C° 0 mm 1 mps 629 mmHg 33%
13:00 +18°C° 0 mm 1 mps 629 mmHg 32%
14:00 +19°C° 0 mm 1 mps 628 mmHg 32%
15:00 +19°C° 0 mm 1 mps 628 mmHg 31%
16:00 +18°C° 0 mm 1 mps 628 mmHg 36%
17:00 +15°C° 0 mm 1 mps 627 mmHg 41%
18:00 +14°C° 0 mm 1 mps 627 mmHg 46%
19:00 +13°C° 0 mm 1 mps 627 mmHg 47%
20:00 +13°C° 0 mm 1 mps 627 mmHg 47%
21:00 +12°C° 0 mm 1 mps 627 mmHg 48%
22:00 +12°C° 0 mm 1 mps 626 mmHg 46%
23:00 +12°C° 0 mm 1 mps 626 mmHg 45%

30 October, Friday

Time Temperature Precipitation Wind Pressure Humidity
00:00 +11°C° 0 mm 1 mps 626 mmHg 44%
01:00 +11°C° 0 mm 1 mps 626 mmHg 44%
02:00 +11°C° 0 mm 1 mps 626 mmHg 44%
03:00 +10°C° 0 mm 1 mps 626 mmHg 44%
04:00 +10°C° 0 mm 1 mps 626 mmHg 44%
05:00 +10°C° 0 mm 1 mps 626 mmHg 43%
06:00 +10°C° 0 mm 1 mps 626 mmHg 43%
07:00 +12°C° 0 mm 1 mps 626 mmHg 38%
08:00 +15°C° 0 mm 1 mps 627 mmHg 33%
09:00 +18°C° 0 mm 1 mps 628 mmHg 28%
10:00 +19°C° 0 mm 1 mps 628 mmHg 27%
11:00 +20°C° 0 mm 1 mps 628 mmHg 25%
12:00 +20°C° 0 mm 2 mps 628 mmHg 24%
13:00 +20°C° 0 mm 2 mps 628 mmHg 25%
14:00 +21°C° 0 mm 2 mps 628 mmHg 25%
15:00 +21°C° 0 mm 2 mps 628 mmHg 26%
16:00 +20°C° 0 mm 1 mps 627 mmHg 31%
17:00 +18°C° 0 mm 1 mps 627 mmHg 36%
18:00 +16°C° 0 mm 1 mps 626 mmHg 40%
19:00 +15°C° 0 mm 1 mps 626 mmHg 41%
20:00 +15°C° 0 mm 1 mps 626 mmHg 42%
21:00 +15°C° 0 mm 1 mps 626 mmHg 42%
22:00 +14°C° 0 mm 1 mps 625 mmHg 43%
23:00 +14°C° 0 mm 1 mps 625 mmHg 44%

31 October, Saturday

Time Temperature Precipitation Wind Pressure Humidity
00:00 +13°C° 0 mm 1 mps 625 mmHg 45%
01:00 +13°C° 0 mm 1 mps 624 mmHg 45%
02:00 +13°C° 0 mm 1 mps 624 mmHg 46%
03:00 +12°C° 0 mm 1 mps 624 mmHg 47%
04:00 +12°C° 0 mm 1 mps 624 mmHg 48%
05:00 +11°C° 0 mm 1 mps 624 mmHg 49%
06:00 +10°C° 0 mm 0 mps 624 mmHg 50%
07:00 +12°C° 0 mm 0 mps 625 mmHg 44%
08:00 +16°C° 0 mm 1 mps 626 mmHg 38%
09:00 +19°C° 0 mm 1 mps 627 mmHg 32%
Show more

We Need Your Consent

Meteoprog and our Service Providers may store and access personal data such as cookies, device identifiers or other similar technologies on your device and process such data to personalise content and ads, as well as provide social media features and to analyse the traffic.

  • Store and/or access information on your device

    Cookies, device identifiers or other information can be stored or accessed on your device for the purposes indicated above.

  • Personalised ads and content, ad and content measurement, audience insights, and products development

    Ads and content can be personalised based on a profile. More data can be added to better personalise ads and content. Ad and content performance can be measured. Insights about the audience who saw the ads and content can be derived. Such data can be used to develop or improve user’s experience, systems and software.

By clicking ‘I Agree’ you will allow the use of indicated cookies, device identifiers, web beacons or other similar technologies. Your settings can be changed in the browser on your device.

For certain purposes, legitimate interests may be relied on, rather than consent. You can read more about this in our Privacy and Cookie Policy.